Weather History for LFMI - May, 2014

Change the Weather History Date:

Friday, May 9, 2014

  Actual Average (LFML) Record (LFML)
Temperature  
Mean Temperature 68 °F -  
Max Temperature 83 °F 71 °F 81 °F (2014)
Min Temperature 52 °F 54 °F 48 °F (2006)
Cooling Degree Days 2    
Growing Degree Days 18 (Base 50)    
Moisture  
Dew Point 53 °F    
Average Humidity 59    
Maximum Humidity 94    
Minimum Humidity 22    
Precipitation  
Precipitation 0.00 in - - ()
Sea Level Pressure  
Sea Level Pressure 30.04 in    
Wind  
Wind Speed 8 mph ()    
Max Wind Speed 18 mph    
Max Gust Speed -    
Visibility 6.4 miles    
Events      
Averages and records for this station are not official NWS values.
T = Trace of Precipitation, MM = Missing Value Source: Averaged Metar Reports

Daily Weather History Graph

Daily Weather History Graph

Search for Another Location

Airport or City:

Trip Planner

Search our weather history database for the weather conditions in past years. The results will help you decide how hot, cold, wet, or windy it might be!

Date:

Astronomy

May. 09, 2014 Rise Set
Actual Time 6:22 AM CEST 8:51 PM CEST
Civil Twilight 5:50 AM CEST 9:23 PM CEST
Nautical Twilight 5:10 AM CEST 10:04 PM CEST
Astronomical Twilight 4:25 AM CEST 10:49 PM CEST
Moon 3:24 PM CEST (5/9) 3:27 AM CEST (5/9)
Length of Visible Light 15h 33m
Length of Day
14h 28m
Waxing Gibbous, 71% of the Moon is Illuminated
May 9
Waxing Gibbous
May 14
Full
May 21
Last Quarter
May 28
New
Jun 5
First Quarter

Hourly Weather History & Observations

Time (CEST) Temp. Heat Index Dew Point Humidity Pressure Visibility Wind Dir Wind Speed Gust Speed Precip Events Conditions
12:00 AM 60 °F - 53 °F 72% 30.09 in 25 mi ESE 4.6 mph - -   Clear
12:00 AM 59.0 °F - 53.6 °F 82% 30.06 in 6.2 mi ESE 4.6 mph - N/A   Unknown
12:30 AM 59.0 °F - 55.4 °F 88% 30.06 in 6.2 mi East 4.6 mph - N/A   Unknown
1:00 AM 59 °F - 55 °F 82% 30.07 in 22 mi East 3.5 mph - -   Clear
1:00 AM 59.0 °F - 55.4 °F 88% 30.06 in 6.2 mi East 3.5 mph - N/A   Unknown
1:30 AM 59.0 °F - 53.6 °F 82% 30.04 in 6.2 mi East 4.6 mph - N/A   Unknown
2:00 AM 57 °F - 54 °F 84% 30.06 in 25 mi ENE 3.5 mph - -   Clear
2:00 AM 57.2 °F - 53.6 °F 88% 30.04 in 6.2 mi ENE 3.5 mph - N/A   Unknown
2:30 AM 55.4 °F - 50.0 °F 82% 30.04 in 6.2 mi NNE 5.8 mph - N/A   Unknown
3:00 AM 54 °F - 50 °F 82% 30.05 in 25 mi NE 6.9 mph - -   Clear
3:00 AM 53.6 °F - 50.0 °F 88% 30.04 in 6.2 mi NE 6.9 mph - N/A   Unknown
3:30 AM 53.6 °F - 50.0 °F 88% 30.04 in 6.2 mi NE 8.1 mph - N/A   Unknown
4:00 AM 54 °F - 50 °F 83% 30.04 in 22 mi East 4.6 mph - -   Clear
4:00 AM 53.6 °F - 50.0 °F 88% 30.04 in 6.2 mi East 4.6 mph - N/A   Unknown
4:30 AM 53.6 °F - 50.0 °F 88% 30.04 in 6.2 mi North 1.2 mph - N/A   Unknown
5:00 AM 52 °F - 49 °F 86% 30.05 in 25 mi NW 5.8 mph - -   Clear
5:00 AM 51.8 °F - 50.0 °F 94% 30.04 in 6.2 mi NW 5.8 mph - N/A   Unknown
5:30 AM 51.8 °F - 50.0 °F 94% 30.04 in 6.2 mi Calm Calm - N/A   Unknown
6:00 AM 51.8 °F - 50.0 °F 94% 30.04 in 6.2 mi Calm Calm - N/A   Unknown
6:30 AM 51.8 °F - 50.0 °F 94% 30.06 in 6.2 mi WNW 4.6 mph - N/A   Unknown
7:00 AM 53 °F - 51 °F 89% 30.07 in 9 mi NW 3.5 mph - -   Clear
7:00 AM 53.6 °F - 50.0 °F 88% 30.06 in 6.2 mi NW 3.5 mph - N/A   Unknown
7:30 AM 53.6 °F - 51.8 °F 94% 30.06 in 6.2 mi NW 4.6 mph - N/A   Unknown
8:00 AM 59 °F - 54 °F 77% 30.08 in 11 mi NW 5.8 mph - -   Clear
8:00 AM 59.0 °F - 53.6 °F 82% 30.06 in 6.2 mi NW 5.8 mph - N/A   Unknown
8:30 AM 62.6 °F - 51.8 °F 68% 30.06 in 6.2 mi WNW 6.9 mph - N/A   Unknown
9:00 AM 66 °F - 49 °F 45% 30.08 in 34 mi NW 16.1 mph - -   Clear
9:00 AM 66.2 °F - 50.0 °F 56% 30.06 in 6.2 mi NW 16.1 mph - N/A   Unknown
9:30 AM 68.0 °F - 50.0 °F 52% 30.06 in 6.2 mi NNW 16.1 mph - N/A   Unknown
10:00 AM 70 °F - 50 °F 38% 30.08 in 31 mi NNW 17.3 mph - -   Clear
10:00 AM 69.8 °F - 50.0 °F 49% 30.06 in 6.2 mi NNW 17.3 mph - N/A   Unknown
10:30 AM 71.6 °F - 50.0 °F 46% 30.06 in 6.2 mi NNW 15.0 mph - N/A   Unknown
11:00 AM 73 °F - 49 °F 32% 30.08 in 34 mi NNW 18.4 mph - -   Clear
11:00 AM 73.4 °F - 50.0 °F 44% 30.06 in 6.2 mi NNW 18.4 mph - N/A   Unknown
11:30 AM 75.2 °F - 50.0 °F 41% 30.06 in 6.2 mi NNW 16.1 mph - N/A   Unknown
12:00 PM 76 °F - 50 °F 29% 30.07 in 37 mi NNW 17.3 mph - -   Clear
12:00 PM 75.2 °F - 50.0 °F 41% 30.06 in 6.2 mi NNW 17.3 mph - N/A   Unknown
12:30 PM 77.0 °F - 50.0 °F 39% 30.06 in 6.2 mi NNW 17.3 mph - N/A   Unknown
1:00 PM 78 °F - 50 °F 26% 30.06 in 37 mi NNW 13.8 mph - -   Clear
1:00 PM 78.8 °F - 50.0 °F 36% 30.06 in 6.2 mi NNW 13.8 mph - N/A   Unknown
1:30 PM 80.6 °F - 50.0 °F 34% 30.04 in 6.2 mi NNW 15.0 mph - N/A   Unknown
2:00 PM 81 °F - 50 °F 24% 30.05 in 37 mi WNW 13.8 mph - -   Clear
2:00 PM 80.6 °F - 50.0 °F 34% 30.04 in 6.2 mi WNW 13.8 mph - N/A   Unknown
2:30 PM 80.6 °F - 50.0 °F 34% 30.04 in 6.2 mi WNW 11.5 mph - N/A   Unknown
3:00 PM 83 °F - 51 °F 22% 30.04 in 34 mi WNW 12.7 mph - -   Clear
3:00 PM 82.4 °F - 50.0 °F 32% 30.04 in 6.2 mi WNW 12.7 mph - N/A   Unknown
3:30 PM 80.6 °F 80.3 °F 53.6 °F 39% 30.01 in 6.2 mi WSW 17.3 mph - N/A   Unknown
4:00 PM 82 °F - 54 °F 27% 30.02 in 25 mi WSW 17.3 mph - -   Clear
4:00 PM 82.4 °F 81.4 °F 53.6 °F 37% 30.01 in 6.2 mi WSW 17.3 mph - N/A   Unknown
4:30 PM 82.4 °F 81.4 °F 53.6 °F 37% 30.01 in 6.2 mi West 17.3 mph - N/A   Unknown
5:00 PM 82 °F - 53 °F 26% 30.01 in 34 mi West 18.4 mph - -   Clear
5:00 PM 82.4 °F 81.4 °F 53.6 °F 37% 30.01 in 6.2 mi West 18.4 mph - N/A   Unknown
5:30 PM 80.6 °F 80.5 °F 55.4 °F 42% 30.01 in 6.2 mi WSW 15.0 mph - N/A   Unknown
6:00 PM 81 °F - 56 °F 32% 30.01 in 28 mi WSW 12.7 mph - -   Clear
6:00 PM 80.6 °F 80.5 °F 55.4 °F 42% 30.01 in 6.2 mi WSW 12.7 mph - N/A   Unknown
6:30 PM 80.6 °F 80.8 °F 57.2 °F 45% 30.01 in 6.2 mi West 12.7 mph - N/A   Unknown
7:00 PM 78 °F - 59 °F 41% 30.00 in 34 mi WSW 10.4 mph - -   Clear
7:00 PM 78.8 °F - 59.0 °F 51% 30.01 in 6.2 mi WSW 10.4 mph - N/A   Unknown
7:30 PM 77.0 °F - 59.0 °F 54% 30.01 in 6.2 mi WSW 6.9 mph - N/A   Unknown
8:00 PM 78 °F - 59 °F 43% 30.01 in 34 mi West 5.8 mph - -   Clear
8:00 PM 78.8 °F - 59.0 °F 51% 30.01 in 6.2 mi West 5.8 mph - N/A   Unknown
8:30 PM 73.4 °F - 59.0 °F 61% 30.01 in 6.2 mi SW 4.6 mph - N/A   Unknown
9:00 PM 71 °F - 58 °F 55% 30.03 in 37 mi Calm Calm - -   Clear
9:00 PM 71.6 °F - 59.0 °F 64% 30.01 in 6.2 mi Calm Calm - N/A   Unknown
9:30 PM 71.6 °F - 57.2 °F 60% 30.04 in 6.2 mi North 5.8 mph - N/A   Unknown
10:00 PM 69 °F - 57 °F 57% 30.04 in 37 mi West 3.5 mph - -   Clear
10:00 PM 68.0 °F - 57.2 °F 68% 30.04 in 6.2 mi West 3.5 mph - N/A   Unknown
10:30 PM 69.8 °F - 53.6 °F 56% 30.04 in 6.2 mi NNW 8.1 mph - N/A   Unknown
11:00 PM 69 °F - 53 °F 47% 30.05 in 37 mi NNW 10.4 mph - -   Clear
11:00 PM 69.8 °F - 53.6 °F 56% 30.04 in 6.2 mi NNW 10.4 mph - N/A   Unknown
11:30 PM 68.0 °F - 53.6 °F 60% 30.04 in 6.2 mi NW 9.2 mph - N/A   Unknown